This is the latest recevied weather packets stored in our database for station/object VA3XLT-1. If no packets are shown the sender has not sent any weather packets the latest 10 day(s).
| Time | Temp. | Humidity | Pressure | Rain* | Wind** | Luminosity | Snow |
|---|---|---|---|---|---|---|---|
| 1777666368 | 9.44° C | 65% | 1013.3 hPa | 0 mm | - | - | - |
| 1777666068 | 10° C | 64% | 1013.3 hPa | 0 mm | - | - | - |
| 1777665768 | 10° C | 65% | 1013.2 hPa | 0 mm | - | - | - |
| 1777665468 | 10° C | 63% | 1013.2 hPa | 0 mm | - | - | - |
| 1777665168 | 10.56° C | 63% | 1013.3 hPa | 0 mm | - | - | - |
| 1777664868 | 10.56° C | 62% | 1013.2 hPa | 0 mm | - | - | - |
| 1777664568 | 10.56° C | 62% | 1013.1 hPa | 0 mm | - | - | - |
| 1777664268 | 11.11° C | 60% | 1013.1 hPa | 0 mm | - | - | - |
| 1777663968 | 11.11° C | 62% | 1013.1 hPa | 0 mm | - | - | - |
| 1777663668 | 10.56° C | 62% | 1013 hPa | 0 mm | - | - | - |
| 1777663368 | 10.56° C | 61% | 1013 hPa | 0 mm | - | - | - |
| 1777663068 | 10° C | 59% | 1013.1 hPa | 0 mm | - | - | - |
| 1777662768 | 11.11° C | 61% | 1013 hPa | 0 mm | - | - | - |
| 1777662468 | 11.11° C | 59% | 1013 hPa | 0 mm | - | - | - |
| 1777662168 | 11.67° C | 60% | 1013 hPa | 0 mm | - | - | - |
| 1777661868 | 11.67° C | 59% | 1012.8 hPa | 0 mm | - | - | - |
| 1777661568 | 12.22° C | 62% | 1012.8 hPa | 0 mm | - | - | - |
| 1777661268 | 12.22° C | 59% | 1012.8 hPa | 0 mm | - | - | - |
| 1777660968 | 12.22° C | 60% | 1012.8 hPa | 0 mm | - | - | - |
| 1777660668 | 11.67° C | 61% | 1012.8 hPa | 0 mm | - | - | - |
| 1777660368 | 11.67° C | 57% | 1012.8 hPa | 0 mm | - | - | - |
| 1777660068 | 12.22° C | 64% | 1012.6 hPa | 0 mm | - | - | - |
| 1777659768 | 11.67° C | 62% | 1012.6 hPa | 0 mm | - | - | - |
| 1777659468 | 11.67° C | 65% | 1012.6 hPa | 0 mm | - | - | - |
| 1777659168 | 11.11° C | 68% | 1012.6 hPa | 0 mm | - | - | - |
* Rain latest hour (hover to see other rain measurements)
** Current wind speed in m/s (hover to see current wind gust speed)